sat.trackr.live / text

‹ back to catalog

STARLINK-34978

NORAD 65435 · 2025-194B

PAYLOAD ACTIVE UNKNOWN

§ Identity

Operator
Country
US
Launch date
2025-09-03
Launch site
AFWTR
Launch vehicle
Mass (kg)
RCS (m²)

Purposes: comms

External: N2YO · Heavens-Above · Gunter

§ Orbital elements

Epoch: 2026-09-20T14:02:26.738880Z

Period
93.91 min
Inclination
97.2842°
Eccentricity
0.0001878
Mean motion
15.33445009 rev/d
Perigee alt
464.3 km
Apogee alt
466.8 km
Semi-major
6,843.7 km
B*
1.8897e-4
RAAN
113.2706°
Arg perigee
87.4807°
Mean anomaly
272.6651°
Rev number
5,908

§ Raw data

STARLINK-349781 65435U 25194B   26263.58503170  .00006031  00000+0  18897-3 0  99972 65435  97.2842 113.2706 0001878  87.4807 272.6651 15.33445009 59080

JSON: /api/v1/satellites/65435 · /tle

For live sub-satellite position, see the globe view (requires WebGL).

§ Visibility from observer

Set your observer location to see the next 7 days of passes ≥ 10°. The values pass through the URL so the page stays shareable.

No JS? Fill the form by hand. The geolocation button needs JavaScript.